When you browse on this site, cookies collect data to enhance your experience and personalize the content and advertising you see.
Visit our Privacy Policy to learn more. By continuing to use the site, you agree to this use of cookies and data.
  • în România
  • Lista ţărilor
  • Pe 7 zile
  • Temperatura apei
  • Hartă satelitară
  • Meteo pe hartă
  • Widget-uri
  • user-avatar
    Intrare

    Meteo pe oră la Guwahati

    Astăzi, 17 Iulie, Miercuri

    Timp Temperatura Precipitaţii Vânt Presiune Umiditate
    00:00 +28°C° 0 mm 1 m/s 749 mmHg 86%
    01:00 +28°C° 0.3 mm 1 m/s 749 mmHg 87%
    02:00 +28°C° 0.3 mm 1 m/s 748 mmHg 89%
    03:00 +27°C° 0.3 mm 1 m/s 748 mmHg 90%
    04:00 +28°C° 0 mm 1 m/s 748 mmHg 90%
    05:00 +28°C° 0 mm 1 m/s 748 mmHg 89%
    06:00 +26°C° 0 mm 0 m/s 749 mmHg 90%
    07:00 +28°C° 0.8 mm 0 m/s 748 mmHg 84%
    08:00 +29°C° 0.8 mm 0 m/s 748 mmHg 77%
    09:00 +33°C° 0.8 mm 1 m/s 748 mmHg 71%
    10:00 +34°C° 0.1 mm 1 m/s 748 mmHg 67%
    11:00 +36°C° 0.1 mm 2 m/s 748 mmHg 62%
    12:00 +37°C° 0.1 mm 2 m/s 748 mmHg 58%
    13:00 +37°C° 0.2 mm 2 m/s 747 mmHg 60%
    14:00 +37°C° 0.2 mm 3 m/s 746 mmHg 62%
    15:00 +37°C° 0.2 mm 3 m/s 746 mmHg 64%
    16:00 +36°C° 0.4 mm 3 m/s 746 mmHg 69%
    17:00 +35°C° 0.4 mm 2 m/s 746 mmHg 74%
    18:00 +34°C° 0.4 mm 2 m/s 746 mmHg 79%
    19:00 +32°C° 0 mm 2 m/s 747 mmHg 80%
    20:00 +31°C° 0 mm 2 m/s 747 mmHg 81%
    21:00 +31°C° 0 mm 2 m/s 748 mmHg 82%
    22:00 +30°C° 0 mm 1 m/s 748 mmHg 83%
    23:00 +30°C° 0 mm 1 m/s 748 mmHg 84%

    Mâine, 18 Iulie, Joi

    Timp Temperatura Precipitaţii Vânt Presiune Umiditate
    00:00 +30°C° 0 mm 1 m/s 748 mmHg 86%
    01:00 +29°C° 0 mm 1 m/s 748 mmHg 86%
    02:00 +29°C° 0 mm 1 m/s 747 mmHg 86%
    03:00 +29°C° 0 mm 1 m/s 747 mmHg 86%
    04:00 +27°C° 0 mm 0 m/s 747 mmHg 87%
    05:00 +27°C° 0 mm 0 m/s 747 mmHg 87%
    06:00 +27°C° 0 mm 0 m/s 748 mmHg 87%
    07:00 +29°C° 0.3 mm 0 m/s 748 mmHg 80%
    08:00 +31°C° 0.3 mm 0 m/s 748 mmHg 73%
    09:00 +33°C° 0.3 mm 0 m/s 748 mmHg 66%
    10:00 +33°C° 0.1 mm 0 m/s 748 mmHg 62%
    11:00 +36°C° 0.1 mm 1 m/s 747 mmHg 59%
    12:00 +37°C° 0.1 mm 1 m/s 747 mmHg 55%
    13:00 +38°C° 0.2 mm 2 m/s 746 mmHg 56%
    14:00 +38°C° 0.2 mm 2 m/s 746 mmHg 58%
    15:00 +38°C° 0.2 mm 3 m/s 745 mmHg 60%
    16:00 +37°C° 0.7 mm 3 m/s 745 mmHg 67%
    17:00 +35°C° 0.7 mm 2 m/s 745 mmHg 73%
    18:00 +34°C° 0.7 mm 2 m/s 745 mmHg 80%
    19:00 +32°C° 0.1 mm 2 m/s 746 mmHg 81%
    20:00 +31°C° 0.1 mm 2 m/s 746 mmHg 83%
    21:00 +30°C° 0.1 mm 2 m/s 747 mmHg 85%
    22:00 +30°C° 0 mm 2 m/s 747 mmHg 86%
    23:00 +30°C° 0 mm 1 m/s 747 mmHg 86%

    Poimâine, 19 Iulie, Vineri

    Timp Temperatura Precipitaţii Vânt Presiune Umiditate
    00:00 +30°C° 0 mm 1 m/s 747 mmHg 87%
    01:00 +30°C° 0 mm 1 m/s 747 mmHg 87%
    02:00 +29°C° 0 mm 1 m/s 747 mmHg 86%
    03:00 +29°C° 0 mm 1 m/s 746 mmHg 86%
    04:00 +29°C° 0.1 mm 1 m/s 747 mmHg 86%
    05:00 +30°C° 0.1 mm 1 m/s 747 mmHg 85%
    06:00 +30°C° 0.1 mm 1 m/s 748 mmHg 84%
    07:00 +31°C° 0.9 mm 1 m/s 748 mmHg 78%
    08:00 +33°C° 0.9 mm 1 m/s 748 mmHg 72%
    09:00 +36°C° 0.9 mm 2 m/s 748 mmHg 65%
    10:00 +36°C° 0.5 mm 2 m/s 748 mmHg 64%
    11:00 +37°C° 0.5 mm 3 m/s 748 mmHg 62%
    12:00 +38°C° 0.5 mm 3 m/s 747 mmHg 60%
    13:00 +38°C° 0.6 mm 4 m/s 747 mmHg 62%
    14:00 +37°C° 0.6 mm 4 m/s 746 mmHg 64%
    15:00 +37°C° 0.6 mm 4 m/s 746 mmHg 67%
    16:00 +36°C° 0.5 mm 4 m/s 745 mmHg 71%
    17:00 +35°C° 0.5 mm 3 m/s 745 mmHg 76%
    18:00 +34°C° 0.5 mm 3 m/s 745 mmHg 81%
    19:00 +33°C° 0.3 mm 3 m/s 746 mmHg 82%
    20:00 +31°C° 0.3 mm 3 m/s 746 mmHg 83%
    21:00 +31°C° 0.3 mm 2 m/s 747 mmHg 83%
    22:00 +30°C° 0.1 mm 2 m/s 747 mmHg 84%
    23:00 +30°C° 0.1 mm 2 m/s 747 mmHg 85%

    20 Iulie, Sâmbătă

    Timp Temperatura Precipitaţii Vânt Presiune Umiditate
    00:00 +30°C° 0.1 mm 1 m/s 747 mmHg 86%
    01:00 +30°C° 0.2 mm 1 m/s 747 mmHg 86%
    02:00 +29°C° 0.2 mm 1 m/s 747 mmHg 87%
    03:00 +29°C° 0.2 mm 1 m/s 747 mmHg 87%
    04:00 +29°C° 0.1 mm 1 m/s 747 mmHg 87%
    05:00 +29°C° 0.1 mm 1 m/s 747 mmHg 87%
    06:00 +29°C° 0.1 mm 1 m/s 748 mmHg 87%
    07:00 +30°C° 1.1 mm 2 m/s 748 mmHg 87%
    08:00 +30°C° 1.1 mm 4 m/s 748 mmHg 86%
    09:00 +32°C° 1.1 mm 5 m/s 748 mmHg 86%
    10:00 +33°C° 0.2 mm 5 m/s 748 mmHg 82%
    11:00 +33°C° 0.2 mm 4 m/s 748 mmHg 78%
    12:00 +34°C° 0.2 mm 4 m/s 747 mmHg 74%
    13:00 +35°C° 0.1 mm 4 m/s 747 mmHg 72%
    14:00 +35°C° 0.1 mm 4 m/s 746 mmHg 70%
    15:00 +36°C° 0.1 mm 5 m/s 746 mmHg 68%
    16:00 +35°C° 0.1 mm 4 m/s 746 mmHg 73%
    17:00 +33°C° 0.1 mm 3 m/s 746 mmHg 78%
    18:00 +31°C° 0.1 mm 2 m/s 746 mmHg 82%
    19:00 +31°C° 0.4 mm 2 m/s 746 mmHg 84%
    20:00 +30°C° 0.4 mm 2 m/s 747 mmHg 86%
    21:00 +29°C° 0.4 mm 1 m/s 747 mmHg 88%
    22:00 +29°C° 0.4 mm 1 m/s 747 mmHg 88%
    23:00 +29°C° 0.4 mm 1 m/s 747 mmHg 88%

    21 Iulie, Duminică

    Timp Temperatura Precipitaţii Vânt Presiune Umiditate
    00:00 +29°C° 0.4 mm 1 m/s 747 mmHg 89%
    01:00 +29°C° 0.2 mm 1 m/s 746 mmHg 89%
    02:00 +29°C° 0.2 mm 1 m/s 746 mmHg 89%
    03:00 +27°C° 0.2 mm 0 m/s 746 mmHg 89%
    04:00 +26°C° 0.7 mm 0 m/s 746 mmHg 91%
    05:00 +28°C° 0.7 mm 1 m/s 746 mmHg 92%
    06:00 +28°C° 0.7 mm 1 m/s 746 mmHg 93%
    07:00 +28°C° 1 mm 1 m/s 747 mmHg 93%
    08:00 +28°C° 1 mm 1 m/s 747 mmHg 93%
    09:00 +29°C° 1 mm 1 m/s 747 mmHg 93%
    10:00 +29°C° 0.4 mm 1 m/s 748 mmHg 93%
    11:00 +29°C° 0.4 mm 1 m/s 748 mmHg 93%
    12:00 +29°C° 0.4 mm 1 m/s 748 mmHg 93%
    13:00 +29°C° 0.1 mm 1 m/s 747 mmHg 90%
    14:00 +30°C° 0.1 mm 1 m/s 746 mmHg 88%
    15:00 +30°C° 0.1 mm 1 m/s 746 mmHg 86%
    16:00 +30°C° 0.3 mm 1 m/s 746 mmHg 86%
    17:00 +30°C° 0.3 mm 1 m/s 746 mmHg 87%
    18:00 +30°C° 0.3 mm 1 m/s 746 mmHg 87%
    19:00 +30°C° 1 mm 1 m/s 746 mmHg 89%
    20:00 +29°C° 1 mm 1 m/s 746 mmHg 90%
    21:00 +26°C° 1 mm 0 m/s 747 mmHg 92%
    22:00 +26°C° 1 mm 0 m/s 747 mmHg 92%
    23:00 +26°C° 1 mm 0 m/s 747 mmHg 93%

    22 Iulie, Luni

    Timp Temperatura Precipitaţii Vânt Presiune Umiditate
    00:00 +26°C° 1 mm 0 m/s 747 mmHg 93%
    01:00 +26°C° 0.6 mm 0 m/s 746 mmHg 93%
    02:00 +26°C° 0.6 mm 0 m/s 746 mmHg 93%
    03:00 +26°C° 0.6 mm 0 m/s 746 mmHg 93%
    04:00 +26°C° 0.7 mm 0 m/s 746 mmHg 93%
    05:00 +26°C° 0.7 mm 0 m/s 746 mmHg 94%
    06:00 +26°C° 0.7 mm 0 m/s 746 mmHg 94%
    07:00 +26°C° 0.5 mm 0 m/s 746 mmHg 94%
    08:00 +29°C° 0.5 mm 1 m/s 747 mmHg 93%
    09:00 +29°C° 0.5 mm 1 m/s 747 mmHg 92%
    10:00 +29°C° 0.6 mm 1 m/s 747 mmHg 93%
    11:00 +29°C° 0.6 mm 1 m/s 747 mmHg 94%
    12:00 +29°C° 0.6 mm 1 m/s 747 mmHg 94%
    13:00 +29°C° 0.5 mm 1 m/s 746 mmHg 94%
    14:00 +29°C° 0.5 mm 1 m/s 746 mmHg 94%
    15:00 +29°C° 0.5 mm 1 m/s 745 mmHg 93%
    16:00 +29°C° 0 mm 1 m/s 745 mmHg 93%
    17:00 +29°C° 0 mm 1 m/s 745 mmHg 92%
    18:00 +29°C° 0 mm 1 m/s 745 mmHg 91%
    19:00 +29°C° 0 mm 1 m/s 745 mmHg 93%
    20:00 +26°C° 0 mm 0 m/s 746 mmHg 94%
    21:00 +26°C° 0 mm 0 m/s 746 mmHg 95%
    22:00 +26°C° 0 mm 0 m/s 746 mmHg 95%
    23:00 +25°C° 0 mm 0 m/s 746 mmHg 95%
    Arată mai mult